Chicago, Illinois, United States (60601)
Lat: 41.85N, Lon: 87.65W
Wx Zone: ILZ014
Local Info
Past Weather Observations for Friday, July 25, 2014

NOTE: This archive is for the closest National Weather Service station to Chicago. Information may differ from the station used for current weather conditions.

Click here for Long-term Archive

Time Weather Temperature Dewpoint Humidity Pressure Winds Precip Visibility
23:51
Overcast
72°F / 22°C 61°F / 16°C 69% 29.92 in
(1013 mb)
SW 8.1 mph
(SW 13 kph)
- 10SM
22:51
Overcast
72°F / 22°C 61°F / 16°C 69% 29.92 in
(1013 mb)
SW 9.2 mph
(SW 15 kph)
- 10SM
21:51
Mostly Cloudy
72°F / 22°C 61°F / 16°C 69% 29.95 in
(1014 mb)
SW 6.9 mph
(SW 11 kph)
- 10SM
20:51
Overcast
73°F / 23°C 61°F / 16°C 65% 29.95 in
(1014 mb)
SW 10.4 mph
(SW 17 kph)
- 10SM
19:51
Mostly Cloudy
73°F / 23°C 61°F / 16°C 65% 29.95 in
(1014 mb)
SW 6.9 mph
(SW 11 kph)
- 10SM
18:51
Partly Cloudy
73°F / 23°C 59°F / 15°C 61% 29.95 in
(1014 mb)
S 10.4 mph
(S 17 kph)
- 10SM
17:51
Partly Cloudy
73°F / 23°C 61°F / 16°C 65% 29.95 in
(1014 mb)
SSE 9.2 mph
(SSE 15 kph)
- 10SM
16:51
Mostly Cloudy
73°F / 23°C 61°F / 16°C 65% 29.95 in
(1014 mb)
SW 12.7 mph
(SW 20 kph)
- 10SM
15:51
Mostly Cloudy
73°F / 23°C 59°F / 15°C 61% 29.95 in
(1014 mb)
SW 10.4 mph
(SW 17 kph)
- 10SM
14:51
Mostly Cloudy
73°F / 23°C 59°F / 15°C 61% 29.95 in
(1014 mb)
SW 12.7 mph
(SW 20 kph)
- 10SM
13:51
Mostly Cloudy
75°F / 24°C 59°F / 15°C 57% 29.98 in
(1015 mb)
SW 18.4 mph
(SW 30 kph)
- 10SM
12:51
Overcast
75°F / 24°C 57°F / 14°C 54% 29.89 in
(1012 mb)
S 15 mph
(S 24 kph)
- 10SM
11:51
Overcast
73°F / 23°C 57°F / 14°C 57% 30.01 in
(1016 mb)
SW 15 mph
(SW 24 kph)
0.00 in
(0.00 mm)
10SM
10:51
Overcast
73°F / 23°C 59°F / 15°C 61% 30.01 in
(1016 mb)
SSE 12.7 mph
(SSE 20 kph)
- 10SM
09:51
Overcast
72°F / 22°C 57°F / 14°C 61% 30.01 in
(1016 mb)
S 11.5 mph
(S 19 kph)
- 10SM
08:51
Overcast
70°F / 21°C 55°F / 13°C 60% 30.04 in
(1017 mb)
S 8.1 mph
(S 13 kph)
- 10SM
07:51
Overcast
66°F / 19°C 54°F / 12°C 64% 30.06 in
(1018 mb)
SSE 8.1 mph
(SSE 13 kph)
- 10SM
06:51
Overcast
64°F / 18°C 54°F / 12°C 68% 30.09 in
(1019 mb)
Variable 4.6 mph
(Variable 7 kph)
- 10SM
05:51
Mostly Cloudy
63°F / 17°C 52°F / 11°C 68% 30.06 in
(1018 mb)
SW 6.9 mph
(SW 11 kph)
- 10SM
04:51
Mostly Cloudy
63°F / 17°C 52°F / 11°C 68% 30.04 in
(1017 mb)
S 4.6 mph
(S 7 kph)
- 10SM
03:51
Mostly Cloudy
61°F / 16°C 52°F / 11°C 72% 30.06 in
(1018 mb)
SW 6.9 mph
(SW 11 kph)
- 10SM
02:51
Partly Cloudy
61°F / 16°C 52°F / 11°C 72% 30.04 in
(1017 mb)
S 5.8 mph
(S 9 kph)
- 10SM
01:51
Clear
63°F / 17°C 52°F / 11°C 68% 30.06 in
(1018 mb)
SW 4.6 mph
(SW 7 kph)
- 10SM
00:51
Clear
63°F / 17°C 52°F / 11°C 68% 30.06 in
(1018 mb)
SW 3.5 mph
(SW 6 kph)
- 10SM
Time Weather Temperature Dewpoint Humidity Pressure Winds Precip Visibility


Weather for websites

WeatherForYou.com, LLC is not responsible for any damages or problems caused by this service. Current weather conditions are obtained from the closest station including government and personal stations which may have varying degrees of accuracy. Weather forecasts are derived from the NOAA NDFD. Like all things, this site belongs to Jesus Christ... He just trusts me to maintain it. If you have any questions or comments email webmaster@weatherforyou.com

Copyright © 2014, WeatherForYou.com LLC. All rights reserved.